Main page
METAR-TAF:

METAR-TAF

Airports :

Shimla, India

Shimla Airport

latitude: 31-04-54N, longitude: 77-04-05E, elevation: 1546 m

Current weather observation

The report was made 1 hour and 48 minutes ago, at 03:00 UTC
Wind 2 kt from the Northwest
Temperature 22°C
Humidity 83%
Pressure 1015 hPa
Visibility: 4000 m
Few clouds at a height of 3000 ft
Scattered clouds at a height of 4000 ft
Broken clouds at a height of 6000 ft
mist

METAR: VISM 240300Z 32002KT 4000 BR FEW030 SCT040 BKN060 22/19 Q1015

Time: 10:18 (04:48 UTC)


TAF: missing

Weather observations and forecasts of more than 4000 airports (METAR and TAF reports).

The available stations are represented by yellow and red dots on the map.

Hover mouse over dot to see the name of the station.

Then click to see weather observations and forecasts.

To change the map : click on the green buttons with a black cross to zoom in, on the green button with a dash to zoom out, or on the green arrows for adjacent maps.


METAR-TAF: